User: anonymous   Login
Location: Passau
(48.5721°N, 13.4363°E)
Time: 21:19:21
(UTC+01:00)
Language:

ISS - Orbit

View from above orbital plane
View from above orbital plane
View from above satellite
View from above satellite

Ground track
Ground track

The orbit data is extracted from the following two-line orbital elements,

1 25544U 98067A   18023.52220164  .00016717  00000-0  10270-3 0  9047
2 25544  51.6387  19.8991 0003678  38.6972 321.4444 15.54186088 16014
Epoch (UTC): 23 January 2018 12:31:58
Eccentricity: 0.0003678
inclination: 51.6387°
perigee height: 402 km
apogee height: 407 km
right ascension of ascending node: 19.8991°
argument of perigee: 38.6972°
revolutions per day: 15.54186088
mean anomaly at epoch: 321.4444°
orbit number at epoch: 1601

The dashed part of the orbit path shows where the satellite is in the earth's shadow,  

DLR